CAPE
1 3 4 7 19 0 2 5 3 7 77 212 294 400 320 139 73 46 33 65 48 58 0 0 0 0 0 0 0 0 0 0 0 0 0 0 0 0 0 0 0 0 0 0 0
2 8 7 14 21 9 15 3 5 5 6 110 249 365 289 176 53 3 156 194 100 19 0 0 0 0 0 0 0 0 0 0 0 0 0 0 0 0 0 0 0 0 0 0 0
4 7 5 14 7 5 4 22 8 30 10 148 232 309 133 112 5 5 167 153 91 90 0 0 0 0 0 0 0 0 0 0 0 0 0 0 0 0 0 0 0 0 0 0 0
9 3 14 10 4 2 23 29 40 9 79 232 226 202 82 29 0 36 138 43 47 18 0 0 0 0 0 0 0 0 0 0 0 0 0 0 0 0 0 0 0 0 0 0 0
2 3 3 1 12 22 23 39 22 47 17 109 108 97 13 2 4 4 0 0 17 12 7 0 0 0 3 0 0 0 0 0 0 0 0 0 0 0 0 0 0 0 0 0 0
4 9 6 3 13 16 10 34 35 2 5 12 37 21 0 2 41 7 0 0 30 5 5 0 0 0 0 0 0 0 0 0 0 0 0 0 0 0 0 0 0 0 0 0 0
4 3 7 4 0 3 9 6 19 49 0 0 42 27 5 8 11 0 0 0 23 0 0 0 0 0 0 0 0 0 0 0 0 0 0 0 0 0 0 0 0 0 0 0 0
2 0 2 4 0 0 0 18 5 19 20 43 35 7 1 0 5 0 0 0 0 1 0 0 0 0 0 0 0 0 0 0 0 0 0 0 0 0 0 0 0 0 0 0 0
0 0 0 0 0 0 0 0 11 1 0 0 1 8 1 0 0 0 0 0 0 0 0 0 0 0 0 0 0 0 0 0 0 0 0 0 0 0 0 0 0 0 0 0 0
0 0 0 0 0 0 0 0 1 0 0 0 0 0 0 1 0 0 0 0 0 0 1 0 0 0 0 0 0 0 0 0 0 0 0 0 0 0 0 0 0 0 0 0 0
0 0 0 0 0 0 0 0 0 1 0 3 1 1 17 4 1 0 0 0 0 1 1 0 0 0 0 0 0 0 0 0 0 0 0 0 0 0 0 0 0 0 0 0 0
0 0 0 0 0 0 0 0 0 0 1 0 0 1 8 4 0 0 0 0 0 0 0 0 0 0 0 0 0 0 0 0 0 0 0 0 0 0 0 0 0 0 0 0 0
0 0 0 0 0 0 0 0 0 0 0 0 1 1 4 3 1 0 0 0 0 0 0 0 0 0 0 0 0 0 0 0 0 0 0 0 0 0 0 0 0 0 0 0 0
1 0 0 0 0 0 0 0 0 0 0 0 0 3 7 6 3 6 0 0 0 0 0 0 0 0 0 0 0 0 0 0 0 0 0 0 0 0 0 0 0 0 0 0 0
0 0 0 0 0 0 0 0 0 0 0 0 0 1 7 2 0 2 0 0 1 0 0 0 0 0 0 0 0 0 0 0 0 0 0 0 0 0 0 0 0 0 0 0 0
2 0 0 0 0 0 0 0 0 0 0 1 6 4 3 5 0 2 1 0 0 0 0 0 0 0 0 0 0 0 0 0 0 0 0 0 0 0 0 0 0 0 0 0 0
0 0 0 0 0 0 0 0 0 0 0 1 1 0 0 1 2 1 1 0 0 0 0 0 0 0 0 0 0 0 0 0 0 0 0 0 0 0 0 0 0 0 0 0 0
0 0 0 0 0 0 0 0 0 1 0 0 2 0 0 0 0 0 0 0 0 0 0 0 0 0 0 0 0 0 0 0 0 0 0 0 0 0 0 0 0 0 0 0 0
0 0 0 0 0 0 0 0 0 0 0 0 0 0 0 0 0 0 0 0 0 0 0 0 0 0 0 0 0 0 0 0 0 0 0 0 0 0 0 0 0 0 0 0 0
0 0 0 0 0 0 0 0 0 0 0 0 0 0 0 0 0 0 0 0 0 0 0 0 0 0 0 0 0 0 0 0 0 0 0 0 0 0 0 0 0 0 0 0 0
0 0 0 0 0 0 0 0 0 0 0 0 0 0 0 0 0 0 0 0 0 0 0 0 0 0 0 0 0 0 0 0 0 0 0 0 0 0 0 0 0 0 0 0 0
0 0 0 0 0 0 0 0 0 0 0 0 0 0 0 0 0 0 0 0 0 0 0 0 0 0 0 0 0 0 0 0 0 0 0 0 0 0 0 0 0 0 0 0 0
0 0 0 0 0 0 0 0 0 0 0 0 0 0 0 0 0 0 0 0 0 0 0 0 0 0 0 0 0 0 0 0 0 0 0 0 0 0 0 0 0 0 0 0 0
0 0 0 0 0 0 0 0 0 0 0 0 0 0 0 0 0 0 0 0 0 0 0 0 0 0 0 0 0 0 0 0 0 0 0 0 0 0 0 0 0 0 0 0 0
0 0 0 0 0 0 0 0 0 0 0 0 0 0 0 0 0 0 0 0 0 0 0 0 0 0 0 0 0 0 0 0 0 0 0 0 0 0 0 0 0 0 0 0 0
0 0 0 0 0 0 0 0 0 0 0 0 0 0 0 0 0 0 0 0 0 0 0 0 0 0 0 0 0 0 0 0 0 0 0 0 0 0 0 0 0 0 0 0 0
0 0 0 0 0 0 0 0 0 0 0 0 0 0 0 0 0 0 0 0 0 0 0 0 0 0 0 0 0 0 0 0 0 0 0 0 0 0 0 0 0 0 0 0 0
CIN
-0 -0 -0 -0 -0 -0 -0 -0 -0 -0 -51 -27 -1 -0 -2 -12 -13 -8 -13 -21 -17 -6 -0 -0 -0 -0 -0 -0 -0 -0 -0 -0 -0 -0 -0 -0 -0 -0 -0 -0 -0 -0 -0 -0 -0
-0 -0 -0 -0 -0 -0 -0 -1 -0 -0 -0 -25 -0 -1 -6 -13 -22 -4 -10 -7 -13 -17 -0 -0 -0 -0 -0 -0 -0 -0 -0 -0 -0 -0 -0 -0 -0 -0 -0 -0 -0 -0 -0 -0 -0
-0 -0 -0 -0 -0 -0 -0 -0 -1 -29 -0 -12 -0 -2 -23 -22 -2 -1 -7 -10 -20 -6 -0 -0 -0 -0 -0 -0 -0 -0 -0 -0 -0 -0 -0 -0 -0 -0 -0 -0 -0 -0 -0 -0 -0
-0 -0 -0 -0 -0 -0 -131 -87 -42 -0 -1 -4 -10 -7 -18 -26 -0 -2 -1 -26 -69 -32 -0 -0 -0 -0 -0 -0 -0 -0 -0 -0 -0 -0 -0 -0 -0 -0 -0 -0 -0 -0 -0 -0 -0
-0 -0 -0 -0 -237 -203 -0 -93 -35 -20 -27 -8 -15 -11 -19 -3 -0 -1 -0 -0 -63 -10 -21 -0 -0 -0 -3 -0 -0 -0 -0 -0 -0 -0 -0 -0 -0 -0 -0 -0 -0 -0 -0 -0 -0
-0 -0 -0 -0 -3 -5 -11 -89 -86 -5 -21 -18 -13 -15 -6 -0 -3 -12 -0 -8 -75 -7 -24 -0 -0 -0 -0 -0 -0 -0 -0 -0 -0 -0 -0 -0 -0 -0 -0 -0 -0 -0 -0 -0 -0
-0 -0 -0 -0 -0 -10 -16 -13 -9 -21 -0 -1 -19 -11 -1 -0 -13 -0 -0 -0 -107 -1 -0 -0 -0 -0 -0 -0 -0 -0 -0 -0 -0 -0 -0 -0 -0 -0 -0 -0 -0 -0 -0 -0 -0
-0 -0 -0 -0 -0 -0 -0 -19 -15 -12 -27 -17 -13 -11 -2 -0 -23 -0 -0 -0 -0 -124 -0 -0 -0 -0 -0 -0 -0 -0 -0 -0 -0 -0 -0 -0 -0 -0 -0 -0 -0 -0 -0 -0 -0
-0 -0 -0 -0 -0 -0 -0 -0 -20 -4 -1 -0 -5 -18 -1 -0 -0 -0 -0 -0 -0 -0 -0 -0 -0 -0 -0 -0 -0 -0 -0 -0 -0 -0 -0 -0 -0 -0 -0 -0 -0 -0 -0 -0 -0
-0 -0 -0 -0 -0 -0 -0 -0 -14 -0 -0 -0 -10 -0 -0 -1 -0 -0 -0 -0 -0 -3 -3 -0 -0 -0 -0 -0 -0 -0 -0 -0 -0 -0 -0 -0 -0 -0 -0 -0 -0 -0 -0 -0 -0
-0 -0 -0 -0 -0 -0 -0 -0 -0 -9 -0 -0 -0 -0 -2 -10 -8 -0 -0 -0 -0 -4 -0 -0 -0 -0 -0 -0 -0 -0 -0 -0 -0 -0 -0 -0 -0 -0 -0 -0 -0 -0 -0 -0 -0
-0 -0 -0 -0 -0 -0 -0 -0 -0 -0 -0 -0 -1 -0 -1 -24 -0 -0 -0 -0 -0 -0 -0 -0 -0 -0 -0 -0 -0 -0 -0 -0 -0 -0 -0 -0 -0 -0 -0 -0 -0 -0 -0 -0 -0
-0 -0 -0 -0 -0 -0 -0 -0 -0 -0 -0 -0 -0 -0 -4 -15 -1 -3 -0 -0 -0 -0 -0 -0 -0 -0 -0 -0 -0 -0 -0 -0 -0 -0 -0 -0 -0 -0 -0 -0 -0 -0 -0 -0 -0
-0 -0 -0 -0 -0 -0 -0 -0 -0 -0 -0 -0 -0 -0 -1 -3 -1 -9 -6 -0 -0 -0 -0 -0 -0 -0 -0 -0 -0 -0 -0 -0 -0 -0 -0 -0 -0 -0 -0 -0 -0 -0 -0 -0 -0
-0 -0 -0 -0 -0 -0 -0 -0 -0 -0 -0 -0 -0 -5 -1 -0 -0 -0 -13 -0 -0 -0 -0 -0 -0 -0 -0 -0 -0 -0 -0 -0 -0 -0 -0 -0 -0 -0 -0 -0 -0 -0 -0 -0 -0
-0 -0 -0 -0 -0 -0 -0 -0 -0 -0 -0 -0 -0 -0 -0 -0 -0 -0 -1 -0 -0 -0 -0 -0 -0 -0 -0 -0 -0 -0 -0 -0 -0 -0 -0 -0 -0 -0 -0 -0 -0 -0 -0 -0 -0
-0 -0 -0 -0 -0 -0 -0 -0 -0 -0 -0 -0 -0 -0 -0 -0 -0 -0 -0 -0 -0 -0 -0 -0 -0 -0 -0 -0 -0 -0 -0 -0 -0 -0 -0 -0 -0 -0 -0 -0 -0 -0 -0 -0 -0
-0 -0 -0 -0 -0 -0 -0 -0 -0 -0 -0 -4 -0 -0 -0 -0 -0 -0 -0 -0 -0 -0 -0 -0 -0 -0 -0 -0 -0 -0 -0 -0 -0 -0 -0 -0 -0 -0 -0 -0 -0 -0 -0 -0 -0
-0 -0 -0 -0 -0 -0 -0 -0 -0 -0 -0 -0 -0 -0 -0 -0 -0 -0 -0 -0 -0 -0 -0 -0 -0 -0 -0 -0 -0 -0 -0 -0 -0 -0 -0 -0 -0 -0 -0 -0 -0 -0 -0 -0 -0
-0 -0 -0 -0 -0 -0 -0 -0 -0 -0 -0 -0 -0 -0 -0 -0 -0 -0 -0 -0 -0 -0 -0 -0 -0 -0 -0 -0 -0 -0 -0 -0 -0 -0 -0 -0 -0 -0 -0 -0 -0 -0 -0 -0 -0
-0 -0 -0 -0 -0 -0 -0 -0 -0 -0 -0 -0 -0 -0 -0 -0 -0 -0 -0 -2 -0 -0 -0 -0 -0 -0 -0 -0 -0 -0 -0 -0 -0 -0 -0 -0 -0 -0 -0 -0 -0 -0 -0 -0 -0
-0 -0 -0 -0 -0 -0 -0 -0 -0 -0 -0 -0 -0 -0 -0 -0 -0 -0 -0 -0 -0 -0 -0 -0 -0 -0 -0 -0 -0 -0 -0 -0 -0 -0 -0 -0 -0 -0 -0 -0 -0 -0 -0 -0 -0
-0 -0 -0 -0 -0 -0 -0 -0 -0 -0 -0 -0 -0 -0 -0 -0 -0 -0 -0 -0 -0 -0 -0 -0 -0 -0 -0 -0 -0 -0 -0 -0 -0 -0 -0 -0 -0 -0 -0 -0 -0 -0 -0 -0 -0
-0 -0 -0 -0 -0 -0 -0 -0 -0 -0 -0 -0 -0 -0 -0 -0 -0 -0 -0 -0 -0 -0 -0 -0 -0 -0 -0 -0 -0 -0 -0 -0 -0 -0 -0 -0 -0 -0 -0 -0 -0 -0 -0 -0 -0
-0 -0 -0 -0 -0 -0 -0 -0 -0 -0 -0 -0 -0 -0 -0 -0 -0 -0 -0 -0 -0 -0 -0 -0 -0 -0 -0 -0 -0 -0 -0 -0 -0 -0 -0 -0 -0 -0 -0 -0 -0 -0 -0 -0 -0
-0 -0 -0 -0 -0 -0 -0 -0 -0 -0 -0 -0 -0 -0 -0 -0 -0 -0 -0 -0 -0 -0 -0 -0 -0 -0 -0 -0 -0 -0 -0 -0 -0 -0 -0 -0 -0 -0 -0 -0 -0 -0 -0 -0 -0
-0 -0 -0 -0 -0 -0 -0 -0 -0 -0 -0 -0 -0 -0 -0 -0 -0 -0 -0 -0 -0 -0 -0 -0 -0 -0 -0 -0 -0 -0 -0 -0 -0 -0 -0 -0 -0 -0 -0 -0 -0 -0 -0 -0 -0
Wind_Speed
27 28 29 30 31 28 25 21 14 20 29 32 29 26 22 22 22 25 38 32 28 24 25 25 25 26 25 28 24 23 28 30 27 24 20 16 19 18 13 9 12 14 10 8 8
25 28 28 26 27 26 27 20 19 12 22 29 26 22 20 21 23 31 28 25 27 25 28 28 29 26 28 29 28 28 30 28 25 26 20 19 19 18 16 12 12 10 6 5 7
24 27 28 26 30 28 27 22 18 19 16 23 25 16 13 20 29 30 26 25 24 22 26 26 27 28 31 29 28 28 31 27 27 27 22 19 19 21 14 18 14 8 2 3 3
23 24 28 28 28 25 24 26 19 16 15 22 17 8 8 22 27 20 24 29 28 20 24 27 29 32 33 33 28 28 25 24 25 25 23 22 19 19 20 17 12 4 3 1 1
20 24 30 30 30 27 29 38 19 17 17 17 8 3 16 25 26 21 23 28 27 23 22 28 31 31 33 32 28 26 25 20 20 19 19 19 18 19 19 14 5 4 3 2 2
19 18 31 31 30 30 29 37 24 17 18 15 9 11 20 26 18 17 22 26 26 22 18 26 29 29 29 31 31 25 22 21 18 19 19 19 19 20 19 10 7 6 6 4 4
16 16 20 30 29 27 25 29 30 24 19 17 10 15 17 21 17 16 18 25 25 21 23 22 23 27 26 31 27 24 25 22 21 21 20 19 22 21 15 11 9 8 8 7 5
16 14 12 11 21 21 22 24 29 23 21 17 14 5 15 16 18 15 16 20 21 20 21 22 22 27 26 24 28 29 28 30 28 25 22 22 27 20 15 12 12 11 9 7 6
16 17 16 14 11 13 22 28 24 21 18 14 12 11 16 17 14 16 13 20 19 23 22 23 24 28 27 32 33 32 37 33 30 25 24 24 23 22 17 15 15 13 10 8 8
13 14 16 14 11 13 8 10 21 8 12 11 12 13 14 14 16 15 16 20 24 18 26 25 27 32 33 36 44 39 34 33 31 28 25 26 22 20 20 19 18 17 15 12 9
8 9 11 12 10 11 21 20 15 15 13 12 14 14 16 15 16 15 15 21 20 27 25 24 35 42 38 32 29 31 31 32 29 27 26 27 24 21 21 21 21 20 17 14 9
8 6 7 7 9 17 21 21 19 20 9 9 9 10 11 15 15 15 17 22 25 28 27 24 38 33 31 28 27 31 32 32 27 26 27 29 29 24 23 23 20 18 17 13 11
8 7 7 6 7 16 19 18 20 20 22 10 10 13 15 13 12 19 18 19 22 22 27 25 30 29 31 32 30 32 33 31 31 26 25 25 32 30 27 27 24 22 19 15 10
8 10 9 8 15 16 17 16 16 17 21 7 11 15 17 15 15 16 20 20 22 24 21 21 24 29 31 33 30 34 29 26 24 28 32 26 33 30 28 29 26 24 19 19 14
11 14 14 13 16 16 17 17 18 18 23 7 11 15 18 19 23 18 20 21 25 24 21 20 25 29 31 31 27 30 23 23 24 26 25 28 29 28 24 24 24 22 21 18 16
12 13 15 18 17 18 18 19 19 20 25 15 12 15 23 20 22 25 22 21 23 20 19 18 16 20 25 23 24 20 20 19 21 24 31 28 28 29 25 24 20 17 15 12 12
12 13 15 16 18 18 18 19 20 23 16 15 17 20 22 18 18 24 25 26 23 18 19 17 18 17 20 24 21 22 24 27 29 31 32 26 27 26 21 18 16 12 10 11 13
14 16 18 17 18 19 20 19 25 20 21 21 19 16 15 18 19 19 18 23 21 23 14 20 27 20 21 23 28 26 26 28 32 32 28 23 29 24 18 13 11 11 12 12 13
12 18 19 19 19 19 20 26 25 23 21 23 23 19 13 17 17 19 20 20 23 23 21 17 20 19 18 20 22 27 29 20 21 23 25 25 24 20 16 14 12 12 12 12 12
16 18 19 20 20 20 24 26 23 22 20 17 15 17 21 15 17 17 15 18 19 21 20 22 18 20 20 19 18 23 19 25 23 27 29 27 26 22 17 13 11 10 10 11 12
17 19 19 19 21 22 27 25 23 19 17 18 19 19 16 17 17 16 17 15 17 18 15 16 19 21 21 21 25 23 26 21 19 21 25 25 26 17 13 9 8 8 9 12 13
17 19 18 19 21 22 24 23 23 21 18 19 17 14 13 13 12 15 21 15 17 21 18 15 15 21 22 21 20 21 24 22 25 25 21 21 22 14 9 5 5 8 10 12 13
17 18 17 17 20 22 21 22 20 20 18 19 20 19 16 10 12 12 18 18 20 19 22 18 18 21 22 22 23 24 24 22 18 17 21 21 20 10 8 7 9 9 12 13 15
16 18 17 18 20 21 20 21 21 19 19 19 20 19 19 17 13 17 19 17 17 21 18 19 23 22 26 23 22 26 25 23 21 23 21 22 15 10 6 9 11 12 13 15 16
18 18 17 17 17 18 18 18 20 19 18 18 19 18 18 19 20 21 20 20 18 19 18 19 20 23 22 21 23 26 27 26 26 23 22 21 18 9 5 8 11 11 14 18 17
18 17 18 18 16 17 16 17 17 18 18 18 19 17 18 21 20 24 24 24 22 21 21 18 22 23 25 24 24 28 30 29 28 26 25 20 21 17 11 14 12 13 18 19 20
18 17 17 17 17 16 15 16 16 18 17 18 18 18 19 20 19 19 20 21 22 23 23 21 22 24 26 23 24 28 35 36 30 30 22 19 24 12 11 11 13 18 19 19 22
Wind_Direction
10 6 1 0 356 3 7 4 353 335 311 296 287 283 273 262 262 257 240 242 244 251 242 240 235 232 232 228 234 238 234 232 232 224 227 224 225 238 252 238 261 264 275 287 119
15 3 4 10 8 7 4 8 3 349 319 295 287 282 271 259 256 250 248 245 248 249 237 229 224 226 225 226 231 230 232 232 238 234 224 227 228 231 241 243 258 267 302 101 109
14 5 4 10 1 7 7 8 3 8 335 299 286 289 276 257 248 247 242 240 246 249 235 229 223 223 224 223 227 230 230 235 237 237 227 225 229 238 227 245 251 247 157 127 109
22 14 2 7 10 18 16 10 14 23 13 302 296 296 281 233 241 249 242 232 231 242 231 221 218 218 222 217 225 227 233 235 237 236 228 225 233 234 245 256 253 216 158 191 126
35 21 357 0 5 19 21 359 38 45 26 330 352 15 243 229 237 257 241 233 227 231 227 217 215 217 218 219 221 226 227 234 236 227 226 229 234 238 249 257 231 219 235 243 297
41 36 350 355 2 10 20 2 36 65 36 4 12 249 234 226 263 259 236 226 224 233 231 218 217 222 223 219 220 224 225 227 230 228 232 228 238 244 249 242 233 241 255 268 292
48 45 34 356 3 15 27 28 26 39 67 154 290 239 236 233 270 262 243 227 229 229 227 224 225 221 223 215 218 216 221 226 230 233 232 237 239 244 242 240 243 255 267 280 297
56 58 61 58 32 35 43 42 28 359 48 29 42 309 256 246 246 250 245 233 231 231 227 233 228 224 221 217 217 219 222 221 230 234 238 240 238 245 244 242 252 263 273 284 296
64 65 60 62 68 72 49 28 33 351 3 337 321 305 259 265 260 234 253 226 225 230 232 238 226 221 219 210 213 219 219 223 226 236 238 241 245 245 246 250 258 266 276 286 297
72 69 65 64 66 63 72 77 52 329 254 276 291 276 287 273 264 254 244 224 212 227 229 226 220 215 212 212 213 217 219 223 227 232 237 239 249 244 249 256 262 268 276 283 293
87 78 66 58 58 58 57 69 88 111 329 320 170 275 263 255 256 252 238 220 211 205 216 222 212 209 210 217 219 220 221 222 231 236 238 240 247 249 252 260 265 270 275 282 287
82 82 69 60 63 58 60 67 91 106 148 294 262 209 282 252 244 240 232 220 214 204 207 221 210 213 214 219 222 221 220 225 233 237 242 242 247 254 257 263 269 275 278 282 291
74 70 64 60 77 72 75 81 91 106 95 158 203 163 220 250 250 224 228 225 214 211 214 217 213 215 216 217 221 222 222 223 228 234 246 246 249 254 261 265 271 276 284 293 290
66 60 63 56 72 74 75 94 99 115 97 151 170 152 187 214 221 227 219 216 213 209 218 226 219 215 215 217 224 221 226 224 224 232 237 246 247 253 261 264 270 275 283 292 303
58 51 53 62 64 68 75 88 100 119 92 157 163 175 181 171 187 205 215 215 206 207 221 225 216 212 212 217 225 224 221 224 229 235 239 244 250 255 267 267 274 279 281 292 306
56 58 57 63 67 71 79 91 99 98 93 136 173 150 136 157 175 184 197 210 204 213 226 223 226 223 219 222 226 213 216 224 236 238 240 245 249 256 262 270 279 290 297 303 312
65 73 72 74 73 83 86 92 86 94 143 148 153 137 140 156 162 165 181 184 201 207 209 217 222 229 223 215 219 217 210 224 231 234 241 248 252 261 272 280 286 297 310 313 311
70 71 74 77 86 94 91 85 83 116 128 136 166 158 164 170 167 172 184 181 202 197 206 215 213 225 230 222 218 215 226 229 231 233 239 250 253 262 273 293 305 308 310 314 320
83 73 74 77 85 94 83 76 92 106 135 138 138 156 184 179 176 186 190 191 191 203 213 222 225 234 230 229 225 221 228 243 239 244 243 250 261 272 278 284 296 303 310 319 327
75 72 72 82 89 90 82 80 93 111 141 156 169 168 159 187 180 189 208 210 208 211 218 217 220 227 230 232 235 231 234 235 244 237 242 250 256 263 264 278 292 303 317 325 330
75 69 75 86 86 83 78 85 96 119 145 145 154 173 182 183 191 196 201 217 220 227 240 227 223 222 225 231 226 230 232 244 248 251 248 249 256 271 276 282 295 316 324 325 328
74 70 80 87 76 81 81 89 96 110 130 131 161 196 212 225 233 220 185 227 220 207 224 239 228 216 224 233 237 240 237 242 242 246 256 260 262 282 286 303 320 321 326 331 335
75 74 83 85 79 82 89 90 96 105 119 131 133 151 195 282 255 247 202 213 202 212 211 224 227 217 225 233 237 238 239 244 252 259 253 258 268 283 293 306 312 318 322 327 332
74 68 80 80 80 86 90 91 94 103 110 121 128 138 149 172 234 213 206 213 207 198 211 218 216 224 221 229 234 235 238 242 249 252 259 264 277 280 285 297 302 311 317 324 329
60 66 77 80 88 89 93 99 97 102 109 116 123 136 148 153 167 180 196 199 215 206 218 218 218 217 224 234 235 236 238 240 246 256 261 272 278 279 261 293 302 314 320 319 323
59 63 69 77 89 95 102 106 105 108 110 116 122 134 143 139 155 160 172 183 188 203 204 220 200 209 210 217 224 229 232 240 247 255 265 276 282 285 278 293 301 311 313 315 316
48 64 64 71 82 91 104 112 115 113 117 117 123 129 134 139 153 167 181 187 183 185 194 205 200 197 197 220 225 232 216 216 242 249 267 272 278 285 283 289 301 307 311 312 311